This is the latest recevied weather packets stored in our database for station/object N4TLC. If no packets are shown the sender has not sent any weather packets the latest 10 day(s).
| Time | Temp. | Humidity | Pressure | Rain* | Wind** | Luminosity | Snow |
|---|---|---|---|---|---|---|---|
| 1777741708 | 12.22° C | 46% | 1015.3 hPa | 0 mm | - | 313 W/m² | - |
| 1777741404 | 12.78° C | 46% | 1015.3 hPa | 0 mm | - | 298 W/m² | - |
| 1777741101 | 12.22° C | 45% | 1015.5 hPa | 0 mm | - | 295 W/m² | - |
| 1777740798 | 12.22° C | 47% | 1015.6 hPa | 0 mm | - | 250 W/m² | - |
| 1777740495 | 12.22° C | 47% | 1015.8 hPa | 0 mm | - | 239 W/m² | - |
| 1777740192 | 12.22° C | 47% | 1015.9 hPa | 0 mm | - | 216 W/m² | - |
| 1777739888 | 12.22° C | 47% | 1016.1 hPa | 0 mm | - | 296 W/m² | - |
| 1777739584 | 12.22° C | 47% | 1016 hPa | 0 mm | - | 246 W/m² | - |
| 1777739282 | 12.22° C | 45% | 1016.2 hPa | 0 mm | - | 250 W/m² | - |
| 1777738979 | 12.22° C | 49% | 1016.2 hPa | 0 mm | - | 255 W/m² | - |
| 1777738675 | 12.22° C | 47% | 1016.3 hPa | 0 mm | - | 277 W/m² | - |
| 1777738371 | 11.67° C | 49% | 1016.2 hPa | 0 mm | - | 245 W/m² | - |
| 1777738070 | 11.67° C | 49% | 1016.2 hPa | 0 mm | - | 219 W/m² | - |
| 1777737769 | 11.67° C | 49% | 1016.2 hPa | 0 mm | - | 191 W/m² | - |
| 1777737467 | 11.67° C | 51% | 1016.5 hPa | 0 mm | - | 155 W/m² | - |
| 1777737164 | 11.67° C | 51% | 1016.7 hPa | 0 mm | - | 146 W/m² | - |
| 1777736860 | 11.67° C | 50% | 1016.7 hPa | 0 mm | - | 136 W/m² | - |
| 1777736246 | 11.67° C | 50% | 1016.9 hPa | 0 mm | - | 139 W/m² | - |
| 1777735943 | 11.67° C | 50% | 1016.7 hPa | 0 mm | - | 121 W/m² | - |
| 1777735641 | 11.67° C | 50% | 1016.5 hPa | 0 mm | - | 105 W/m² | - |
| 1777735338 | 11.67° C | 51% | 1016.6 hPa | 0 mm | - | 122 W/m² | - |
| 1777735035 | 11.67° C | 49% | 1016.4 hPa | 0 mm | - | 126 W/m² | - |
| 1777734732 | 11.67° C | 50% | 1016.5 hPa | 0 mm | - | 104 W/m² | - |
| 1777734429 | 11.67° C | 50% | 1016.4 hPa | 0 mm | - | 112 W/m² | - |
| 1777734126 | 11.67° C | 49% | 1016.3 hPa | 0 mm | - | 132 W/m² | - |
* Rain latest hour (hover to see other rain measurements)
** Current wind speed in m/s (hover to see current wind gust speed)